^^
Saratoga-Weather Station Historical Data
Daily Summary for January 28, 2020 Units:  English    Metric   Both
Daily Weekly Monthly Yearly Custom
  High: Low: Average:
Temperature: 78.3 °F 49.6 °F 64.6 °F
Dew Point: 54 °F 45.1 °F 48.2 °F
Humidity: 87% 32% 59%
Wind Speed: 10.1mph 0mph 1.4mph
Wind Gust: 12mph - -
Wind- - South
Pressure: 30.5 in 30.4 in -
Precipitation: 0 in    
Historical Graphs
 
 
Tabular Data for January 28, 2020
Time Temperature Dew Point Pressure Wind Wind Speed Wind Gust Humidity Rainfall Rate (Hourly) solar
00:03 57 °F 48 °F 30.5 in Calm     72% 0 in 0 W/m2
00:08 56.8 °F 48.2 °F 30.5 in Calm     73% 0 in 0 W/m2
00:13 56.7 °F 48 °F 30.5 in South 0.9 mph 1 mph 73% 0 in 0 W/m2
00:18 56.5 °F 48.4 °F 30.5 in Calm     74% 0 in 0 W/m2
00:23 56.3 °F 48.2 °F 30.5 in Calm     74% 0 in 0 W/m2
00:28 55.9 °F 47.8 °F 30.5 in Calm   1 mph 74% 0 in 0 W/m2
00:33 55.8 °F 48 °F 30.5 in Calm   1 mph 75% 0 in 0 W/m2
00:38 55.6 °F 47.8 °F 30.5 in Calm     75% 0 in 0 W/m2
00:43 55.4 °F 48 °F 30.5 in South 0.9 mph 1 mph 76% 0 in 0 W/m2
00:48 55.2 °F 47.8 °F 30.5 in Calm     76% 0 in 0 W/m2
00:53 55 °F 48 °F 30.5 in Calm   1 mph 77% 0 in 0 W/m2
00:58 54.9 °F 47.8 °F 30.5 in Calm     77% 0 in 0 W/m2
01:03 54.7 °F 47.7 °F 30.5 in Calm   1 mph 77% 0 in 0 W/m2
01:08 54.7 °F 48 °F 30.5 in Calm   2 mph 78% 0 in 0 W/m2
01:13 54.3 °F 48 °F 30.5 in South 0.9 mph 1 mph 79% 0 in 0 W/m2
01:18 54.3 °F 48 °F 30.5 in Calm   2 mph 79% 0 in 0 W/m2
01:23 54.1 °F 47.8 °F 30.5 in South 0.9 mph 1 mph 79% 0 in 0 W/m2
01:28 54.1 °F 47.8 °F 30.5 in South 0.9 mph 2 mph 79% 0 in 0 W/m2
01:33 54 °F 48 °F 30.5 in Calm     80% 0 in 0 W/m2
01:38 54 °F 48 °F 30.5 in Calm     80% 0 in 0 W/m2
01:43 53.8 °F 47.8 °F 30.5 in Calm     80% 0 in 0 W/m2
01:48 53.6 °F 47.7 °F 30.5 in South 0.9 mph 2 mph 80% 0 in 0 W/m2
01:53 53.4 °F 47.7 °F 30.5 in Calm     81% 0 in 0 W/m2
01:58 53.2 °F 47.5 °F 30.5 in Calm     81% 0 in 0 W/m2
02:03 53.2 °F 47.5 °F 30.5 in Calm     81% 0 in 0 W/m2
02:08 53.2 °F 47.5 °F 30.5 in Calm   1 mph 81% 0 in 0 W/m2
02:13 53.1 °F 47.3 °F 30.5 in Calm     81% 0 in 0 W/m2
02:18 53.1 °F 47.3 °F 30.5 in Calm   2 mph 81% 0 in 0 W/m2
02:23 53.2 °F 47.5 °F 30.5 in Calm     81% 0 in 0 W/m2
02:28 53.2 °F 47.5 °F 30.5 in Calm   2 mph 81% 0 in 0 W/m2
02:33 53.1 °F 47.3 °F 30.5 in South 0.9 mph 1 mph 81% 0 in 0 W/m2
02:38 53.1 °F 47.3 °F 30.5 in South 0.9 mph 1 mph 81% 0 in 0 W/m2
02:43 53.1 °F 47.3 °F 30.5 in Calm   1 mph 81% 0 in 0 W/m2
02:48 52.9 °F 47.3 °F 30.5 in Calm     81% 0 in 0 W/m2
02:53 52.9 °F 47.3 °F 30.5 in Calm     81% 0 in 0 W/m2
02:58 52.9 °F 47.3 °F 30.5 in Calm     81% 0 in 0 W/m2
03:03 52.7 °F 47.1 °F 30.5 in Calm   1 mph 81% 0 in 0 W/m2
03:08 52.5 °F 46.9 °F 30.5 in Calm     81% 0 in 0 W/m2
03:13 52.5 °F 46.9 °F 30.5 in Calm     81% 0 in 0 W/m2
03:18 52.3 °F 46.9 °F 30.5 in Calm     82% 0 in 0 W/m2
03:23 52.2 °F 46.8 °F 30.5 in Calm     82% 0 in 0 W/m2
03:28 52 °F 46.6 °F 30.5 in Calm   1 mph 82% 0 in 0 W/m2
03:33 51.8 °F 46.8 °F 30.5 in Calm   1 mph 83% 0 in 0 W/m2
03:38 51.6 °F 46.6 °F 30.5 in Calm   1 mph 83% 0 in 0 W/m2
03:43 51.6 °F 46.6 °F 30.5 in Calm     83% 0 in 0 W/m2
03:48 51.4 °F 46.8 °F 30.5 in Calm   1 mph 84% 0 in 0 W/m2
03:53 51.4 °F 46.8 °F 30.5 in South 0.9 mph 1 mph 84% 0 in 0 W/m2
03:58 51.4 °F 46.8 °F 30.5 in Calm     84% 0 in 0 W/m2
04:03 51.3 °F 46.6 °F 30.5 in Calm     84% 0 in 0 W/m2
04:08 51.1 °F 46.4 °F 30.5 in South 0.9 mph 1 mph 84% 0 in 0 W/m2
04:13 51.1 °F 46.8 °F 30.5 in Calm     85% 0 in 0 W/m2
04:18 50.7 °F 46.4 °F 30.5 in South 1 mph 1 mph 85% 0 in 0 W/m2
04:23 50.7 °F 46.4 °F 30.5 in Calm   1 mph 85% 0 in 0 W/m2
04:28 50.5 °F 46.2 °F 30.5 in Calm   1 mph 85% 0 in 0 W/m2
04:33 50.5 °F 46.6 °F 30.5 in Calm     86% 0 in 0 W/m2
04:38 50.5 °F 46.6 °F 30.5 in Calm   1 mph 86% 0 in 0 W/m2
04:43 50.5 °F 46.6 °F 30.5 in Calm     86% 0 in 0 W/m2
04:48 50.4 °F 46.4 °F 30.5 in Calm     86% 0 in 0 W/m2
04:53 50.4 °F 46.4 °F 30.5 in Calm     86% 0 in 0 W/m2
04:58 50.2 °F 46.2 °F 30.5 in Calm     86% 0 in 0 W/m2
05:03 50.2 °F 46.2 °F 30.5 in Calm     86% 0 in 0 W/m2
05:08 50 °F 46 °F 30.5 in Calm     86% 0 in 0 W/m2
05:13 50 °F 46 °F 30.5 in Calm     86% 0 in 0 W/m2
05:18 49.8 °F 45.9 °F 30.5 in Calm     86% 0 in 0 W/m2
05:23 49.8 °F 45.9 °F 30.5 in Calm     86% 0 in 0 W/m2
05:28 50 °F 46.2 °F 30.5 in Calm     87% 0 in 0 W/m2
05:33 49.8 °F 45.9 °F 30.5 in Calm     86% 0 in 0 W/m2
05:38 49.8 °F 46 °F 30.5 in Calm     87% 0 in 5 W/m2
05:43 49.8 °F 46 °F 30.5 in Calm     87% 0 in 5 W/m2
05:48 49.6 °F 45.9 °F 30.5 in Calm     87% 0 in 7 W/m2
05:53 49.6 °F 45.9 °F 30.5 in Calm     87% 0 in 11 W/m2
05:58 49.6 °F 45.9 °F 30.5 in Calm   1 mph 87% 0 in 12 W/m2
06:03 49.6 °F 45.9 °F 30.5 in Calm     87% 0 in 14 W/m2
06:08 49.6 °F 45.9 °F 30.5 in Calm     87% 0 in 18 W/m2
06:13 49.6 °F 45.9 °F 30.5 in Calm     87% 0 in 19 W/m2
06:18 49.6 °F 45.9 °F 30.5 in Calm     87% 0 in 23 W/m2
06:23 49.8 °F 46 °F 30.5 in Calm     87% 0 in 26 W/m2
06:28 49.8 °F 46 °F 30.5 in Calm     87% 0 in 28 W/m2
06:33 50.2 °F 46.4 °F 30.5 in Calm     87% 0 in 30 W/m2
06:38 50.4 °F 46.4 °F 30.5 in Calm     86% 0 in 32 W/m2
06:43 50.5 °F 46.8 °F 30.5 in Calm     87% 0 in 33 W/m2
06:48 50.5 °F 46.6 °F 30.5 in Calm   1 mph 86% 0 in 33 W/m2
06:53 50.9 °F 46.9 °F 30.5 in Calm     86% 0 in 35 W/m2
06:58 51.3 °F 47.3 °F 30.5 in Calm     86% 0 in 35 W/m2
07:03 51.4 °F 47.5 °F 30.5 in South 0.9 mph 2 mph 86% 0 in 37 W/m2
07:08 52 °F 47.3 °F 30.5 in Calm     84% 0 in 37 W/m2
07:14 52.3 °F 46.9 °F 30.5 in Calm     82% 0 in 37 W/m2
07:19 52.9 °F 47.3 °F 30.5 in Calm     81% 0 in 39 W/m2
07:24 53.2 °F 47.3 °F 30.5 in Calm     80% 0 in 40 W/m2
07:29 53.4 °F 47.1 °F 30.5 in Calm     79% 0 in 40 W/m2
07:34 54 °F 47.7 °F 30.5 in Calm     79% 0 in 40 W/m2
07:39 54.3 °F 47.7 °F 30.5 in Calm   2 mph 78% 0 in 162 W/m2
07:44 54.9 °F 47.8 °F 30.5 in Calm     77% 0 in 172 W/m2
07:49 55.6 °F 48.6 °F 30.5 in Calm     77% 0 in 239 W/m2
07:55 56.5 °F 48.7 °F 30.5 in NE 0.9 mph 2 mph 75% 0 in 253 W/m2
08:00 57.6 °F 48.9 °F 30.5 in Calm   3 mph 73% 0 in 269 W/m2
08:05 58.5 °F 48.7 °F 30.5 in ENE 2 mph 4 mph 70% 0 in 279 W/m2
08:10 59.2 °F 49.1 °F 30.5 in Calm   1 mph 69% 0 in 288 W/m2
08:15 59.5 °F 48.9 °F 30.5 in Calm   4 mph 68% 0 in 309 W/m2
08:20 59.7 °F 49.1 °F 30.5 in ENE 2 mph 2 mph 68% 0 in 323 W/m2
08:25 60.1 °F 49.1 °F 30.5 in NE 0.9 mph 4 mph 67% 0 in 341 W/m2
08:30 60.8 °F 49.8 °F 30.5 in Calm   1 mph 67% 0 in 353 W/m2
08:35 61.3 °F 49.5 °F 30.5 in ENE 0.9 mph 4 mph 65% 0 in 366 W/m2
08:40 61.5 °F 48.7 °F 30.5 in Calm   2 mph 63% 0 in 381 W/m2
08:45 61.5 °F 49.3 °F 30.5 in Calm   2 mph 64% 0 in 396 W/m2
08:50 61.9 °F 49.1 °F 30.5 in ESE 2 mph 3 mph 63% 0 in 408 W/m2
08:55 61.9 °F 48.2 °F 30.5 in North 2 mph 3 mph 61% 0 in 422 W/m2
09:00 62.1 °F 48.4 °F 30.5 in SE 0.9 mph 2 mph 61% 0 in 434 W/m2
09:05 62.4 °F 48.7 °F 30.5 in SE 2 mph 7 mph 61% 0 in 446 W/m2
09:10 62.8 °F 49.1 °F 30.5 in East 0.9 mph 2 mph 61% 0 in 459 W/m2
09:15 63.1 °F 49.1 °F 30.5 in ESE 2 mph 4 mph 60% 0 in 475 W/m2
09:20 63.3 °F 49.3 °F 30.5 in East 0.9 mph 3 mph 60% 0 in 487 W/m2
09:25 63.7 °F 48.6 °F 30.5 in ESE 4 mph 4 mph 58% 0 in 501 W/m2
09:30 64 °F 48.9 °F 30.5 in Calm   2 mph 58% 0 in 513 W/m2
09:35 64.6 °F 48 °F 30.5 in Calm   4 mph 55% 0 in 526 W/m2
09:40 64.9 °F 48.4 °F 30.5 in NE 0.9 mph 2 mph 55% 0 in 538 W/m2
09:45 65.1 °F 48 °F 30.5 in ENE 2.9 mph 5 mph 54% 0 in 554 W/m2
09:50 65.3 °F 48.2 °F 30.5 in NNW 2 mph 3 mph 54% 0 in 563 W/m2
09:55 65.7 °F 48 °F 30.5 in East 2.9 mph 3 mph 53% 0 in 527 W/m2
10:00 65.5 °F 48.4 °F 30.5 in SE 0.9 mph 6 mph 54% 0 in 62 W/m2
10:05 65.8 °F 48.7 °F 30.5 in ENE 6 mph 8 mph 54% 0 in 134 W/m2
10:10 65.8 °F 49.3 °F 30.5 in Calm   3 mph 55% 0 in 610 W/m2
10:15 66.4 °F 48.2 °F 30.5 in ENE 2.9 mph 8 mph 52% 0 in 622 W/m2
10:20 66.4 °F 47.7 °F 30.5 in ENE 4 mph 4 mph 51% 0 in 633 W/m2
10:25 66.4 °F 48.2 °F 30.5 in NNE 4 mph 7 mph 52% 0 in 645 W/m2
10:30 66.9 °F 49.3 °F 30.5 in ESE 0.9 mph 7 mph 53% 0 in 663 W/m2
10:35 67.5 °F 48.2 °F 30.5 in East 2.9 mph 6 mph 50% 0 in 663 W/m2
10:40 67.5 °F 49.3 °F 30.5 in ESE 2 mph 3 mph 52% 0 in 675 W/m2
10:45 67.5 °F 48.2 °F 30.5 in ENE 2.9 mph 7 mph 50% 0 in 693 W/m2
10:50 67.8 °F 48 °F 30.5 in ESE 2.9 mph 9 mph 49% 0 in 707 W/m2
10:55 67.8 °F 49.1 °F 30.5 in NNW 2 mph 3 mph 51% 0 in 714 W/m2
11:00 68.2 °F 48.9 °F 30.5 in North 0.9 mph 11 mph 50% 0 in 722 W/m2
11:05 68 °F 49.6 °F 30.5 in NE 2.9 mph 5 mph 52% 0 in 729 W/m2
11:10 68.4 °F 48.4 °F 30.5 in NE 4.9 mph 11 mph 49% 0 in 747 W/m2
11:15 68.4 °F 47.8 °F 30.5 in NNW 4 mph 7 mph 48% 0 in 754 W/m2
11:20 68.4 °F 46.8 °F 30.5 in ENE 4 mph 10 mph 46% 0 in 765 W/m2
11:25 68.4 °F 48.4 °F 30.5 in NNE 0.9 mph 3 mph 49% 0 in 758 W/m2
11:30 68.5 °F 48 °F 30.5 in ESE 0.9 mph 10 mph 48% 0 in 777 W/m2
11:35 69.3 °F 48.7 °F 30.5 in South 2.9 mph 6 mph 48% 0 in 786 W/m2
11:40 69.6 °F 48.6 °F 30.5 in ENE 0.9 mph 5 mph 47% 0 in 796 W/m2
11:45 69.8 °F 49.3 °F 30.5 in East 4 mph 7 mph 48% 0 in 802 W/m2
11:50 70.2 °F 48.4 °F 30.5 in ENE 6.9 mph 8 mph 46% 0 in 807 W/m2
11:55 69.6 °F 46.8 °F 30.5 in Calm   4 mph 44% 0 in 812 W/m2
12:00 70 °F 48.2 °F 30.5 in SSW 0.9 mph 7 mph 46% 0 in 819 W/m2
12:05 70.3 °F 48.6 °F 30.5 in ENE 4.9 mph 5 mph 46% 0 in 833 W/m2
12:10 70.9 °F 48.6 °F 30.5 in NW 2.9 mph 8 mph 45% 0 in 842 W/m2
12:15 70.5 °F 46.9 °F 30.5 in ENE 8.1 mph 8 mph 43% 0 in 847 W/m2
12:20 70.5 °F 47.5 °F 30.5 in ENE 2 mph 4 mph 44% 0 in 849 W/m2
12:25 70.5 °F 47.5 °F 30.5 in NNE 4.9 mph 8 mph 44% 0 in 858 W/m2
12:30 70.5 °F 47.5 °F 30.5 in SE 4 mph 6 mph 44% 0 in 865 W/m2
12:35 71.1 °F 48 °F 30.5 in NNW 2 mph 8 mph 44% 0 in 631 W/m2
12:40 70.5 °F 47.5 °F 30.5 in NNE 4 mph 5 mph 44% 0 in 740 W/m2
12:45 70.7 °F 47.7 °F 30.5 in NE 2.9 mph 9 mph 44% 0 in 860 W/m2
12:50 71.1 °F 48.6 °F 30.5 in NNW 4 mph 5 mph 45% 0 in 870 W/m2
12:55 71.1 °F 47.5 °F 30.5 in ESE 2.9 mph 8 mph 43% 0 in 872 W/m2
13:00 70.9 °F 48.6 °F 30.5 in WSW 0.9 mph 8 mph 45% 0 in 874 W/m2
13:05 71.1 °F 47.5 °F 30.5 in ENE 2 mph 9 mph 43% 0 in 877 W/m2
13:10 70.9 °F 48.6 °F 30.5 in East 2 mph 5 mph 45% 0 in 877 W/m2
13:15 71.2 °F 48.7 °F 30.5 in ENE 2.9 mph 8 mph 45% 0 in 881 W/m2
13:20 71.2 °F 48.2 °F 30.5 in East 4 mph 9 mph 44% 0 in 881 W/m2
13:25 71.2 °F 47.7 °F 30.5 in NW 4 mph 8 mph 43% 0 in 882 W/m2
13:30 71.4 °F 48.4 °F 30.5 in NW 2 mph 9 mph 44% 0 in 877 W/m2
13:35 71.4 °F 47.1 °F 30.5 in SSE 2 mph 5 mph 42% 0 in 884 W/m2
13:40 72 °F 48.2 °F 30.5 in SE 2 mph 2 mph 43% 0 in 884 W/m2
13:45 72 °F 48.9 °F 30.5 in ENE 4 mph 10 mph 44% 0 in 882 W/m2
13:50 72 °F 48.9 °F 30.5 in ESE 6 mph 10 mph 44% 0 in 881 W/m2
13:55 72 °F 48.2 °F 30.5 in WNW 0.9 mph 2 mph 43% 0 in 879 W/m2
14:00 72 °F 49.5 °F 30.5 in SE 4.9 mph 10 mph 45% 0 in 882 W/m2
14:05 72.1 °F 49.6 °F 30.5 in SE 4.9 mph 7 mph 45% 0 in 877 W/m2
14:10 72.7 °F 50.2 °F 30.4 in West 0.9 mph 9 mph 45% 0 in 874 W/m2
14:16 73 °F 49.8 °F 30.4 in NNE 0.9 mph 3 mph 44% 0 in 870 W/m2
14:21 73 °F 48 °F 30.4 in SSW 0.9 mph 3 mph 41% 0 in 867 W/m2
14:26 73.2 °F 48 °F 30.4 in SW 2 mph 3 mph 41% 0 in 867 W/m2
14:31 73.2 °F 48.7 °F 30.4 in North 2 mph 6 mph 42% 0 in 865 W/m2
14:36 73.4 °F 48.2 °F 30.4 in NNW 0.9 mph 6 mph 41% 0 in 856 W/m2
14:41 73.4 °F 48.9 °F 30.4 in ENE 4.9 mph 7 mph 42% 0 in 853 W/m2
14:46 73.8 °F 49.8 °F 30.4 in NW 2 mph 6 mph 43% 0 in 853 W/m2
14:51 73.9 °F 48.7 °F 30.4 in Calm   4 mph 41% 0 in 837 W/m2
14:56 73.8 °F 49.8 °F 30.4 in East 2 mph 4 mph 43% 0 in 840 W/m2
15:01 73.8 °F 49.8 °F 30.4 in ENE 2 mph 7 mph 43% 0 in 837 W/m2
15:06 74.5 °F 50.5 °F 30.4 in NE 2 mph 5 mph 43% 0 in 830 W/m2
15:11 74.5 °F 48.6 °F 30.4 in SSW 2 mph 4 mph 40% 0 in 833 W/m2
15:16 74.7 °F 50.7 °F 30.4 in Calm   3 mph 43% 0 in 823 W/m2
15:21 74.7 °F 49.5 °F 30.4 in NNE 0.9 mph 2 mph 41% 0 in 802 W/m2
15:26 74.7 °F 48.7 °F 30.4 in NE 0.9 mph 5 mph 40% 0 in 802 W/m2
15:31 74.7 °F 50 °F 30.4 in ESE 0.9 mph 2 mph 42% 0 in 793 W/m2
15:36 74.8 °F 49.6 °F 30.4 in ENE 4 mph 7 mph 41% 0 in 791 W/m2
15:41 75 °F 48.4 °F 30.4 in ENE 0.9 mph 9 mph 39% 0 in 779 W/m2
15:46 75 °F 48.4 °F 30.4 in NNE 4 mph 7 mph 39% 0 in 775 W/m2
15:51 75 °F 47.7 °F 30.4 in NNW 4 mph 7 mph 38% 0 in 758 W/m2
15:56 74.7 °F 48 °F 30.4 in West 2 mph 4 mph 39% 0 in 765 W/m2
16:01 74.8 °F 46.8 °F 30.4 in WNW 10.1 mph 11 mph 37% 0 in 747 W/m2
16:06 75 °F 46.2 °F 30.4 in North 2 mph 4 mph 36% 0 in 747 W/m2
16:11 75.2 °F 46.4 °F 30.4 in East 2 mph 9 mph 36% 0 in 740 W/m2
16:16 75.9 °F 46.2 °F 30.4 in WNW 4 mph 6 mph 35% 0 in 728 W/m2
16:21 75.7 °F 46.9 °F 30.4 in NNW 4.9 mph 5 mph 36% 0 in 717 W/m2
16:26 75.7 °F 46.2 °F 30.4 in West 4 mph 12 mph 35% 0 in 710 W/m2
16:31 75.7 °F 46.2 °F 30.4 in WSW 2 mph 2 mph 35% 0 in 694 W/m2
16:36 75.9 °F 46.2 °F 30.4 in NNW 2 mph 12 mph 35% 0 in 687 W/m2
16:41 76.5 °F 46 °F 30.4 in ENE 4 mph 4 mph 34% 0 in 675 W/m2
16:46 76.6 °F 46.2 °F 30.4 in East 2.9 mph 9 mph 34% 0 in 668 W/m2
16:52 76.5 °F 46 °F 30.4 in West 0.9 mph 4 mph 34% 0 in 656 W/m2
16:57 76.5 °F 47.5 °F 30.4 in ESE 2.9 mph 4 mph 36% 0 in 642 W/m2
17:02 76.5 °F 45.1 °F 30.4 in NW 0.9 mph 2 mph 33% 0 in 631 W/m2
17:07 76.5 °F 46.8 °F 30.4 in ENE 0.9 mph 2 mph 35% 0 in 621 W/m2
17:12 76.6 °F 46.2 °F 30.4 in NNW 2 mph 2 mph 34% 0 in 606 W/m2
17:17 77 °F 46.4 °F 30.4 in NW 2.9 mph 7 mph 34% 0 in 601 W/m2
17:22 77.4 °F 46.8 °F 30.4 in NNW 4 mph 5 mph 34% 0 in 585 W/m2
17:27 77.5 °F 46.9 °F 30.4 in Calm   4 mph 34% 0 in 568 W/m2
17:32 77.7 °F 47.8 °F 30.4 in NE 0.9 mph 4 mph 35% 0 in 554 W/m2
17:37 78.1 °F 46.6 °F 30.4 in SE 2 mph 7 mph 33% 0 in 547 W/m2
17:42 77.7 °F 46.4 °F 30.4 in East 4 mph 6 mph 33% 0 in 533 W/m2
17:47 77.5 °F 46.9 °F 30.4 in West 2.9 mph 5 mph 34% 0 in 515 W/m2
17:52 77.5 °F 46.2 °F 30.4 in NNW 2 mph 6 mph 33% 0 in 504 W/m2
17:57 77.7 °F 47.1 °F 30.4 in NE 0.9 mph 2 mph 34% 0 in 489 W/m2
18:02 77.7 °F 45.5 °F 30.4 in ENE 0.9 mph 5 mph 32% 0 in 476 W/m2
18:07 77.7 °F 47.1 °F 30.4 in NNE 0.9 mph 2 mph 34% 0 in 464 W/m2
18:12 77.9 °F 46.4 °F 30.4 in WNW 2.9 mph 3 mph 33% 0 in 448 W/m2
18:17 77.5 °F 46.9 °F 30.4 in West 2 mph 2 mph 34% 0 in 429 W/m2
18:22 77.7 °F 47.1 °F 30.4 in NNW 0.9 mph 2 mph 34% 0 in 404 W/m2
18:27 78.1 °F 47.5 °F 30.4 in SE 0.9 mph 3 mph 34% 0 in 373 W/m2
18:32 78.1 °F 47.5 °F 30.4 in NNE 0.9 mph 4 mph 34% 0 in 339 W/m2
18:37 78.3 °F 47.7 °F 30.4 in NE 0.9 mph 2 mph 34% 0 in 318 W/m2
18:42 77.9 °F 48 °F 30.4 in NNW 2 mph 3 mph 35% 0 in 297 W/m2
18:47 77.7 °F 47.8 °F 30.4 in NNW 0.9 mph 3 mph 35% 0 in 274 W/m2
18:52 77.7 °F 47.8 °F 30.4 in West 2.9 mph 5 mph 35% 0 in 255 W/m2
18:57 77.2 °F 48.2 °F 30.4 in West 2 mph 6 mph 36% 0 in 234 W/m2
19:02 77 °F 48.7 °F 30.4 in WSW 0.9 mph 2 mph 37% 0 in 220 W/m2
19:07 77.2 °F 48.2 °F 30.4 in East 0.9 mph 3 mph 36% 0 in 236 W/m2
19:12 77.4 °F 48.4 °F 30.4 in ENE 2 mph 4 mph 36% 0 in 244 W/m2
19:17 77.4 °F 48.4 °F 30.4 in NNW 2 mph 2 mph 36% 0 in 248 W/m2
19:22 77.5 °F 48.6 °F 30.4 in Calm   4 mph 36% 0 in 246 W/m2
19:27 77.7 °F 47.8 °F 30.4 in NE 0.9 mph 4 mph 35% 0 in 232 W/m2
19:32 77.5 °F 49.3 °F 30.4 in Calm   1 mph 37% 0 in 214 W/m2
19:37 77.5 °F 52 °F 30.4 in SSE 0.9 mph 3 mph 41% 0 in 195 W/m2
19:42 77.5 °F 53.2 °F 30.4 in Calm     43% 0 in 160 W/m2
19:47 77.5 °F 54 °F 30.4 in SSE 0.9 mph 2 mph 44% 0 in 134 W/m2
19:53 76.8 °F 52.7 °F 30.4 in Calm   2 mph 43% 0 in 125 W/m2
19:58 75.9 °F 51.8 °F 30.4 in Calm   1 mph 43% 0 in 114 W/m2
20:03 75.4 °F 53.2 °F 30.4 in Calm   2 mph 46% 0 in 102 W/m2
20:08 74.7 °F 52.5 °F 30.4 in Calm     46% 0 in 35 W/m2
20:13 74.1 °F 52.5 °F 30.4 in Calm     47% 0 in 39 W/m2
20:18 73.2 °F 52.3 °F 30.4 in Calm     48% 0 in 28 W/m2
20:23 72.7 °F 51.8 °F 30.4 in Calm     48% 0 in 25 W/m2
20:28 72 °F 52.3 °F 30.4 in Calm     50% 0 in 21 W/m2
20:33 71.2 °F 51.1 °F 30.4 in Calm     49% 0 in 25 W/m2
20:38 70.3 °F 50.9 °F 30.4 in Calm   1 mph 50% 0 in 30 W/m2
20:43 69.6 °F 50.7 °F 30.4 in Calm     51% 0 in 28 W/m2
20:48 69.3 °F 50.4 °F 30.4 in Calm   1 mph 51% 0 in 28 W/m2
20:53 69.1 °F 50.7 °F 30.4 in Calm     52% 0 in 23 W/m2
20:59 68.9 °F 50.5 °F 30.4 in Calm     52% 0 in 21 W/m2
21:04 68.7 °F 50.4 °F 30.4 in Calm   1 mph 52% 0 in 19 W/m2
21:09 68.4 °F 50 °F 30.4 in Calm   1 mph 52% 0 in 14 W/m2
21:14 68.2 °F 50.4 °F 30.4 in Calm     53% 0 in 11 W/m2
21:19 67.6 °F 49.8 °F 30.4 in Calm   1 mph 53% 0 in 5 W/m2
21:24 67.3 °F 50 °F 30.4 in Calm   2 mph 54% 0 in 0 W/m2
21:29 66.7 °F 49.6 °F 30.4 in Calm   1 mph 54% 0 in 0 W/m2
21:34 66.4 °F 50.2 °F 30.4 in South 0.9 mph 1 mph 56% 0 in 0 W/m2
21:39 65.8 °F 49.6 °F 30.4 in Calm   1 mph 56% 0 in 0 W/m2
21:44 65.3 °F 49.3 °F 30.4 in WSW 2.9 mph 3 mph 56% 0 in 0 W/m2
21:49 65.5 °F 48.9 °F 30.4 in WSW 0.9 mph 4 mph 55% 0 in 0 W/m2
21:54 66.2 °F 49.1 °F 30.4 in WNW 0.9 mph 1 mph 54% 0 in 0 W/m2
21:59 66.6 °F 49.8 °F 30.4 in West 2.9 mph 3 mph 55% 0 in 0 W/m2
22:04 66.6 °F 49.8 °F 30.4 in West 0.9 mph 3 mph 55% 0 in 0 W/m2
22:09 66.6 °F 50.4 °F 30.4 in WSW 2.9 mph 4 mph 56% 0 in 0 W/m2
22:14 66.6 °F 50.4 °F 30.4 in WSW 0.9 mph 2 mph 56% 0 in 0 W/m2
22:19 66.7 °F 50.5 °F 30.4 in WNW 2 mph 3 mph 56% 0 in 0 W/m2
22:24 66.7 °F 50.5 °F 30.4 in West 0.9 mph 1 mph 56% 0 in 0 W/m2
22:29 66.7 °F 51.1 °F 30.4 in WSW 2 mph 3 mph 57% 0 in 0 W/m2
22:34 66.6 °F 50.9 °F 30.4 in WNW 6 mph 6 mph 57% 0 in 0 W/m2
22:39 66.7 °F 50.5 °F 30.4 in WSW 0.9 mph 7 mph 56% 0 in 0 W/m2
22:44 67.1 °F 50.4 °F 30.4 in WNW 2 mph 4 mph 55% 0 in 0 W/m2
22:49 67.5 °F 50.2 °F 30.4 in NNW 4 mph 9 mph 54% 0 in 0 W/m2
22:54 67.8 °F 50.5 °F 30.4 in WNW 2.9 mph 4 mph 54% 0 in 0 W/m2
23:00 67.8 °F 50.5 °F 30.4 in WNW 2.9 mph 6 mph 54% 0 in 0 W/m2
23:05 67.8 °F 50.5 °F 30.4 in West 6 mph 7 mph 54% 0 in 0 W/m2
23:10 67.6 °F 50.4 °F 30.4 in West 2.9 mph 6 mph 54% 0 in 0 W/m2
23:15 67.5 °F 50.7 °F 30.4 in West 2 mph 6 mph 55% 0 in 0 W/m2
23:20 67.3 °F 50.5 °F 30.4 in WNW 9 mph 9 mph 55% 0 in 0 W/m2
23:25 67.1 °F 50.9 °F 30.4 in North 0.9 mph 4 mph 56% 0 in 0 W/m2
23:30 66.9 °F 50.7 °F 30.4 in West 2.9 mph 8 mph 56% 0 in 0 W/m2
23:35 66.7 °F 50.5 °F 30.4 in North 4.9 mph 5 mph 56% 0 in 0 W/m2
23:40 66.7 °F 50.5 °F 30.4 in SW 2.9 mph 5 mph 56% 0 in 0 W/m2
23:45 66.6 °F 50.9 °F 30.4 in WSW 2 mph 8 mph 57% 0 in 0 W/m2
23:50 66.4 °F 50.7 °F 30.4 in NW 4 mph 9 mph 57% 0 in 0 W/m2
23:55 66.2 °F 50.9 °F 30.4 in WNW 4 mph 6 mph 58% 0 in 0 W/m2
Juneau County Weather
Compliments of Weather Underground - 4 mb